This is the latest recevied weather packets stored in our database for station/object KF6YUA. If no packets are shown the sender has not sent any weather packets the latest 10 day(s).
| Time | Temp. | Humidity | Pressure | Rain* | Wind** | Luminosity | Snow |
|---|---|---|---|---|---|---|---|
| 1777502135 | 20.56° C | 63% | 1018.6 hPa | 0 mm | - | 492 W/m² | - |
| 1777501833 | 20.56° C | 60% | 1018.8 hPa | 0 mm | - | 527 W/m² | - |
| 1777501529 | 20.56° C | 61% | 1018.8 hPa | 0 mm | - | 382 W/m² | - |
| 1777501226 | 20.56° C | 61% | 1019 hPa | 0 mm | - | 546 W/m² | - |
| 1777500924 | 21.11° C | 60% | 1018.9 hPa | 0 mm | - | 514 W/m² | - |
| 1777500621 | 21.11° C | 61% | 1019.2 hPa | 0 mm | - | 561 W/m² | - |
| 1777500318 | 20.56° C | 58% | 1018.9 hPa | 0 mm | - | 558 W/m² | - |
| 1777500014 | 21.67° C | 61% | 1019 hPa | 0 mm | - | 488 W/m² | - |
| 1777499711 | 20.56° C | 59% | 1019 hPa | 0 mm | - | 571 W/m² | - |
| 1777499408 | 21.67° C | 59% | 1019.1 hPa | 0 mm | - | 580 W/m² | - |
| 1777499106 | 21.11° C | 60% | 1019.1 hPa | 0 mm | - | 566 W/m² | - |
| 1777498802 | 21.67° C | 58% | 1019.1 hPa | 0 mm | - | 597 W/m² | - |
| 1777498499 | 21.67° C | 60% | 1019.3 hPa | 0 mm | - | 604 W/m² | - |
| 1777498195 | 21.67° C | 60% | 1019 hPa | 0 mm | - | 618 W/m² | - |
| 1777497894 | 21.67° C | 59% | 1019.1 hPa | 0 mm | - | 641 W/m² | - |
| 1777497589 | 21.67° C | 57% | 1019.2 hPa | 0 mm | - | 629 W/m² | - |
| 1777497285 | 21.67° C | 57% | 1019.4 hPa | 0 mm | - | 628 W/m² | - |
| 1777496982 | 20.56° C | 59% | 1019.4 hPa | 0 mm | - | 619 W/m² | - |
| 1777496679 | 21.67° C | 60% | 1019.3 hPa | 0 mm | - | 659 W/m² | - |
| 1777496375 | 21.67° C | 59% | 1019.4 hPa | 0 mm | - | 498 W/m² | - |
| 1777496072 | 21.67° C | 62% | 1019.4 hPa | 0 mm | - | 571 W/m² | - |
| 1777495767 | 21.67° C | 61% | 1019.4 hPa | 0 mm | - | 714 W/m² | - |
| 1777495464 | 22.22° C | 61% | 1019.3 hPa | 0 mm | - | 673 W/m² | - |
| 1777495160 | 21.67° C | 64% | 1019.5 hPa | 0 mm | - | 524 W/m² | - |
| 1777494858 | 21.67° C | 61% | 1019.4 hPa | 0 mm | - | 642 W/m² | - |
* Rain latest hour (hover to see other rain measurements)
** Current wind speed in m/s (hover to see current wind gust speed)